Probability
0 0 0 0 0 0 0 0 0 0 0 0 0 1 4 8 11 14 16 17 15 14 17 22 26 32 39 45 47 45 40 33 28 25 22 20 17 15 15 15 15 18 21 23
0 0 0 0 0 0 0 0 0 0 0 0 0 1 2 4 8 10 12 13 14 17 20 21 22 25 30 36 38 36 30 25 22 20 16 14 12 11 11 10 12 15 18 20
0 0 0 0 0 0 0 0 0 0 0 0 0 2 5 5 6 7 7 9 11 13 15 15 14 14 17 21 23 22 19 15 14 12 8 6 6 7 6 6 8 11 14 16
0 0 0 0 0 0 0 0 0 0 0 0 0 4 9 9 7 6 6 5 5 6 7 6 6 6 7 9 10 10 10 9 7 5 4 3 2 3 3 3 4 6 9 11
0 0 0 0 0 0 0 0 0 0 0 0 0 3 8 8 7 6 5 4 2 2 2 1 1 1 2 2 2 3 4 4 2 1 1 1 1 1 1 1 1 3 4 5
0 0 0 0 0 0 0 0 0 0 0 0 0 3 6 7 6 6 4 2 1 0 0 0 0 0 0 0 0 1 2 1 0 0 0 0 0 1 1 1 0 1 1 1
0 0 0 0 0 0 0 0 0 0 0 0 0 3 7 7 4 3 2 1 0 0 0 1 1 0 0 0 0 0 1 1 0 0 0 0 1 2 2 1 0 0 0 0
0 0 0 0 0 0 0 0 0 0 0 0 0 3 5 5 2 1 0 0 0 0 1 2 2 1 0 0 0 0 1 1 1 0 0 0 1 1 1 0 0 1 0 0
0 0 0 0 0 0 0 0 0 0 0 0 0 2 2 2 2 1 0 0 0 0 1 2 3 2 1 0 0 0 1 2 2 1 0 0 0 0 0 0 0 0 0 0
0 0 0 0 0 0 0 0 0 0 0 0 0 1 1 1 1 1 0 0 0 0 0 1 2 3 2 1 0 0 1 2 3 1 0 0 0 0 0 0 0 0 0 0
0 0 0 0 0 0 0 0 0 0 0 0 0 0 1 1 0 0 0 0 0 0 0 0 1 2 2 1 0 0 0 1 1 0 0 0 0 0 0 0 0 0 0 0
0 0 0 0 0 0 0 0 0 0 0 0 0 0 0 0 0 0 0 0 0 0 0 0 0 1 1 0 0 0 0 0 0 0 0 0 0 0 0 0 1 2 2 1
0 0 0 0 0 0 0 0 0 0 0 0 0 0 0 0 0 0 0 0 0 0 0 0 0 0 0 0 0 0 0 0 0 0 0 0 0 0 0 0 1 2 3 3
0 0 0 0 0 0 0 0 0 0 0 0 0 0 0 0 0 0 0 0 0 0 0 0 0 0 0 0 0 0 0 0 0 0 0 0 0 0 0 1 1 2 3 3
0 0 0 0 0 0 0 0 0 0 0 0 0 0 0 0 0 0 0 0 0 0 0 0 0 0 0 0 0 0 0 0 0 0 0 0 0 0 0 1 2 1 2 2
0 0 0 0 0 0 0 0 0 0 0 0 0 0 0 0 0 0 0 0 0 0 0 0 0 0 0 0 0 0 0 0 0 0 0 0 0 0 0 1 1 1 1 2
0 0 0 0 0 0 0 0 0 0 0 0 0 0 0 0 0 0 0 0 0 0 0 0 0 0 0 0 0 0 0 0 0 0 0 0 0 0 0 0 0 0 0 1
0 0 0 0 0 0 0 0 0 0 0 0 0 0 0 0 0 0 0 0 0 0 0 0 0 0 0 0 0 0 0 0 0 0 0 0 0 0 0 0 1 2 2 1
0 0 0 0 0 0 0 0 0 0 0 0 0 0 0 0 0 0 0 0 0 0 0 0 0 0 0 0 0 0 0 0 0 0 0 0 0 0 0 0 1 2 3 2
0 0 0 0 0 0 0 0 0 0 0 0 0 0 0 0 0 0 0 0 0 0 0 0 0 0 0 0 0 0 0 0 0 0 0 0 0 0 0 0 0 1 2 2
0 0 0 0 0 0 0 0 0 0 0 0 0 0 0 0 0 0 0 0 0 0 0 0 0 0 0 0 0 0 0 0 0 0 0 0 0 0 0 0 0 0 0 0
0 0 0 0 0 0 0 0 0 0 0 0 0 0 0 0 0 0 0 0 0 0 0 0 0 0 0 0 0 0 0 0 0 0 0 0 0 0 0 0 0 0 0 0
0 0 0 0 0 0 0 0 0 0 0 0 0 0 0 0 0 0 0 0 0 0 0 0 0 0 0 0 0 0 0 0 0 0 0 0 0 0 0 0 0 0 0 0
0 0 0 0 0 0 0 0 0 0 0 0 0 0 0 0 0 0 0 0 0 0 0 0 0 0 0 0 0 0 0 0 0 0 0 0 0 0 0 0 0 0 0 0
0 0 0 0 0 0 0 0 0 0 0 0 0 0 0 0 0 0 0 0 0 0 0 0 0 0 0 0 0 0 0 0 0 0 0 0 0 0 0 0 0 0 0 0
0 0 0 0 0 0 0 0 0 0 0 0 0 0 0 0 0 0 0 0 0 0 0 0 0 0 0 0 0 0 0 0 0 0 0 0 0 0 0 0 0 0 0 0
Wind_Speed
6 8 5 1 2 4 3 4 1 3 3 2 6 7 7 6 7 8 8 9 9 9 9 9 9 8 7 6 4 3 3 3 1 1 2 2 2 2 3 3 4 6 6 6
8 6 1 2 3 5 5 5 2 4 4 2 5 7 7 7 7 7 7 7 7 7 8 8 8 7 7 6 5 4 3 2 1 1 1 2 3 3 2 2 3 4 5 5
6 3 1 4 5 6 6 5 3 1 4 6 6 7 8 8 7 7 7 6 6 6 6 6 6 6 6 6 5 4 4 2 2 2 0 1 1 2 2 3 3 4 5 5
2 1 3 5 3 6 4 2 4 4 7 4 6 3 9 8 7 6 6 5 5 5 5 5 5 5 5 4 3 3 2 2 2 1 1 1 2 2 2 2 2 3 3 4
0 1 4 3 3 5 4 2 4 6 8 6 5 6 8 6 5 5 5 4 4 3 4 3 3 3 3 2 1 1 1 2 2 3 2 3 3 2 2 2 2 3 3 3
1 0 3 4 2 1 1 4 6 8 9 7 0 6 5 5 4 4 4 3 3 2 2 2 2 2 2 2 2 2 2 2 3 3 3 4 4 4 4 4 4 4 3 3
3 3 3 2 3 3 5 7 6 6 5 0 3 3 7 6 4 3 3 2 2 1 1 2 3 3 4 4 4 4 4 5 5 5 6 6 6 6 6 7 5 6 5 4
2 2 5 5 5 6 4 7 7 7 7 2 3 1 7 5 4 2 2 1 2 2 3 4 6 6 6 6 6 6 6 7 7 7 7 7 8 8 7 7 8 7 7 6
5 3 4 4 5 5 3 4 6 8 7 7 2 7 7 4 3 2 1 2 3 5 6 7 8 9 8 8 8 9 9 9 9 10 9 9 10 10 10 10 10 9 7 8
5 4 3 1 1 5 5 4 4 5 7 7 1 3 4 4 5 3 4 5 6 7 9 9 9 9 9 9 10 10 10 11 11 12 11 11 11 11 11 11 12 11 11 10
4 5 1 2 6 8 4 3 5 4 5 8 6 4 7 6 6 7 6 7 9 10 11 11 10 10 11 11 12 11 12 12 12 12 12 13 13 13 13 12 13 12 12 12
3 5 2 5 5 5 7 7 6 5 5 5 7 5 7 5 5 6 8 9 11 12 13 13 13 12 12 13 13 14 13 14 14 14 14 14 14 14 15 15 14 14 14 13
2 3 4 8 7 4 5 6 5 4 4 5 7 4 4 4 6 7 10 12 12 13 13 13 13 13 13 14 14 15 15 15 15 15 16 15 15 15 15 15 15 14 14 14
3 3 6 7 6 3 3 4 5 6 6 7 7 10 8 8 9 11 12 13 14 14 14 14 14 14 14 15 15 16 16 16 16 16 17 17 16 16 16 15 15 15 15 15
3 2 3 4 3 2 2 3 4 6 7 9 11 12 10 10 11 12 14 15 15 15 15 16 16 15 16 16 16 16 16 16 16 17 17 17 17 16 16 16 15 15 15 16
1 0 1 3 2 0 1 1 4 6 8 10 11 10 9 10 11 13 15 15 16 16 17 17 17 17 17 17 17 17 17 16 17 17 18 17 17 17 16 16 16 16 15 15
2 2 4 1 2 6 4 0 4 8 9 10 11 11 12 13 14 15 15 14 15 17 18 18 18 17 17 17 17 17 17 17 17 17 17 17 17 16 16 16 16 15 15 14
2 3 4 3 3 4 6 3 4 9 10 8 8 11 13 14 14 14 11 12 15 17 18 18 17 18 17 17 17 17 17 17 17 17 17 17 16 16 16 15 16 15 14 13
2 4 4 5 6 3 4 1 5 9 10 4 7 12 13 14 15 10 10 13 15 16 17 16 17 18 17 17 17 17 17 17 17 17 16 16 16 16 16 15 15 14 12 12
4 5 6 5 7 4 4 4 3 7 4 4 8 12 13 14 13 11 15 16 16 16 15 16 17 17 17 16 16 17 17 17 16 17 17 16 15 15 15 15 14 13 11 11
6 5 5 6 6 1 5 3 3 7 8 8 9 11 12 12 12 14 16 16 16 16 17 16 16 15 15 16 16 17 17 17 16 16 16 16 15 15 14 13 12 12 11 10
5 4 4 4 5 2 5 1 4 7 6 7 9 10 11 12 13 14 15 16 16 16 17 17 15 15 15 15 15 16 16 16 16 16 16 15 15 13 12 12 11 10 10 9
4 4 3 3 3 5 1 2 3 4 6 7 8 10 11 12 13 15 15 15 15 16 16 15 16 16 15 15 15 16 16 16 16 16 16 15 14 12 10 10 10 9 8 7
4 1 4 4 3 2 2 3 2 3 5 6 7 9 10 12 14 15 14 14 15 15 15 15 16 16 16 16 16 15 15 14 15 15 15 12 11 10 9 7 7 6 6 6
2 5 6 7 4 3 4 3 2 2 3 5 6 7 9 11 13 13 13 14 14 14 14 14 15 15 16 16 16 15 14 14 14 14 13 12 10 10 9 7 5 6 5 5
7 7 7 4 2 3 0 2 2 2 3 5 6 8 9 10 12 13 13 13 13 14 14 14 15 16 16 16 16 15 14 13 13 12 11 9 9 8 7 6 5 3 4 4
Wind_Direction
206 235 228 223 287 319 299 283 286 77 106 88 100 96 79 72 75 77 74 71 69 66 63 58 58 61 64 63 66 64 61 62 64 39 325 307 314 307 296 282 279 271 270 258
216 215 264 300 254 244 243 250 214 129 142 179 131 111 96 78 71 68 72 71 72 75 70 65 63 64 63 61 54 53 53 72 40 52 326 295 311 301 286 305 320 304 287 267
243 57 27 239 223 234 238 267 294 182 165 189 186 158 134 110 98 89 82 80 75 67 65 66 63 61 61 59 53 48 42 41 32 22 24 288 267 282 323 342 335 322 307 299
242 316 265 255 246 270 268 330 285 237 232 217 238 255 129 130 118 100 87 81 75 71 69 66 66 63 62 57 47 39 32 31 18 343 356 347 328 329 337 313 323 322 314 317
134 329 289 288 356 307 351 356 269 259 263 262 219 273 119 136 121 105 92 82 73 65 62 62 56 54 49 43 31 11 2 351 337 321 309 293 305 312 308 298 295 288 292 293
327 353 328 349 359 338 190 232 228 238 252 250 55 292 105 90 61 86 93 89 77 67 59 42 19 1 342 323 310 306 308 302 299 293 293 289 296 296 296 289 289 281 276 269
162 128 83 338 279 195 255 275 259 242 239 268 91 290 71 65 58 47 48 56 46 25 355 338 327 324 318 313 314 308 304 297 295 290 287 284 281 278 272 277 277 280 283 277
304 83 45 13 341 320 323 301 311 310 314 332 161 76 85 72 75 66 50 13 342 326 325 322 316 313 309 308 304 300 296 289 289 287 284 281 278 277 282 279 285 282 281 281
334 32 87 41 18 328 310 334 337 291 287 285 122 116 122 106 82 38 352 318 320 321 319 315 314 314 312 310 308 306 302 294 288 285 283 277 275 278 283 281 269 271 270 271
328 310 68 62 232 62 10 342 288 304 318 305 320 108 79 45 12 354 334 329 324 319 317 318 316 315 312 308 307 307 302 296 291 287 283 282 279 275 273 273 275 275 274 270
320 295 90 87 29 15 19 19 341 321 329 317 327 59 59 22 360 341 335 331 325 323 322 320 318 316 311 309 308 307 303 300 297 293 290 287 283 280 276 270 268 268 266 266
351 313 45 86 84 42 45 21 356 337 351 321 310 65 76 20 350 334 329 330 331 327 325 324 323 320 316 313 312 310 307 303 300 299 295 290 287 284 280 275 271 269 266 263
3 295 218 166 160 117 62 48 28 350 306 324 320 25 80 346 333 332 330 330 327 326 325 323 323 320 317 316 315 312 309 306 305 304 300 296 292 288 284 281 278 273 270 265
306 9 353 22 39 46 85 61 29 353 340 331 338 334 339 345 337 333 331 327 324 325 325 322 321 317 318 316 315 314 311 310 308 305 301 299 296 292 287 284 281 276 271 267
287 78 60 61 71 65 77 48 20 11 353 330 331 327 341 348 335 329 326 324 324 324 324 324 322 320 318 316 315 313 311 310 307 303 299 297 295 292 289 285 282 279 275 270
356 67 172 144 130 167 209 326 343 349 337 327 319 328 358 335 323 324 326 325 324 325 325 325 323 321 320 318 315 314 311 309 306 302 300 298 296 293 290 286 283 279 274 272
182 224 276 260 171 256 224 222 328 331 331 324 321 335 336 326 328 327 323 321 325 325 324 323 323 320 319 317 316 313 311 309 305 302 300 299 297 295 291 289 286 283 279 274
230 262 280 307 246 279 71 56 331 318 316 319 317 327 331 326 325 315 317 331 327 325 323 323 321 319 318 318 316 314 311 309 307 304 302 301 299 296 293 289 285 282 279 275
234 253 283 292 288 285 138 158 334 321 313 336 327 327 327 328 313 312 7 343 327 324 322 321 320 319 319 318 318 316 312 310 308 307 306 304 302 298 295 290 287 285 282 276
171 233 267 281 296 308 79 71 4 291 288 53 331 326 328 324 317 336 347 333 327 325 323 321 320 320 319 320 320 315 312 312 312 311 308 306 302 299 295 292 289 287 283 276
205 221 259 282 284 320 85 85 265 298 3 353 331 326 323 326 318 321 325 327 326 325 323 322 322 320 320 320 320 315 314 313 314 313 308 305 303 299 295 292 291 289 285 278
263 254 245 273 281 50 105 264 313 341 339 324 324 324 324 319 317 322 325 326 326 326 325 326 323 320 320 322 321 316 315 316 316 313 310 308 306 302 301 298 293 290 285 280
256 322 316 298 353 76 148 297 338 325 309 319 323 326 323 318 322 326 327 326 326 326 327 326 323 320 322 325 323 317 316 317 315 313 312 311 310 308 304 300 299 297 288 279
176 190 248 247 235 204 218 245 266 282 302 317 320 321 321 321 324 326 327 326 326 328 327 326 323 323 324 325 323 319 317 319 316 315 314 315 313 311 310 306 304 299 294 288
256 194 230 243 250 232 208 229 269 280 295 306 316 322 324 323 324 327 324 326 327 327 326 325 324 323 323 324 321 321 324 322 317 316 316 315 312 312 309 308 307 304 305 303
223 218 234 262 192 249 52 140 210 259 289 311 317 319 324 326 325 326 325 326 326 326 325 325 326 325 323 322 321 324 326 323 318 317 316 316 316 316 315 314 312 277 273 287